Flag for Saudi Arabia Weather past 2 weeks in Qatif, Saudi Arabia

Now
93 °F

Clear.


Feels Like: 95 °F
Forecast: 86 / 108 °F
Wind: 5 mph from Southwest

Location: King Fahd International Airport

Current Time: Jul 30, 2014 at 11:09:08 PM

Latest Report: Jul 30, 2014 at 10:00 PM


Visibility: 10 mi

Pressure: 29.45 "Hg

Humidity: 39%

Dew point: 64 °F

Location of QatifLocation

Historic Weather in Qatif — Graph

°F

Qatif temperature yesterday

Maximum temperature yesterday: 111 °F (at 2:00 PM)
Minimum temperature yesterday: 86 °F (at 4:00 AM)
Average temperature yesterday: 99 °F

Past Weeks' High & Low Weather Summary

 TemperatureHumidityPressure
High115 °F (Jul 30, 1:00 PM)55% (Jul 17, 11:00 PM)29.59 "Hg (Jul 17, 11:00 PM)
Low82 °F (Jul 16, 5:00 AM)6% (Jul 16, 12:00 PM)29.33 "Hg (Jul 17, 4:00 PM)
Average99 °F18%29.46 "Hg
* Reported Jul 15 10:00 PM — Jul 30 10:00 PM, Qatif, Weather by CustomWeather, © 2014

Note: Actual official high and low records may vary slightly from our data, if they occured in-between our weather recording intervals... More about our weather records

Advertising

Qatif weather history for previous 24 hours

 ConditionsComfort  
Time TempWeatherWind HumidityBarometerVisibility
10:00 PM
Jul 30
93 °FClear.5 mph39%29.45 "Hg10 mi
9:00 PM93 °FClear.5 mph47%29.42 "Hg10 mi
8:00 PM95 °FClear.2 mph44%29.42 "Hg10 mi
7:00 PM99 °FClear.7 mph29%29.39 "Hg10 mi
6:00 PM102 °FSunny.10 mph27%29.39 "Hg10 mi
5:00 PM108 °FSunny.15 mph17%29.39 "Hg10 mi
4:00 PM113 °FSunny.14 mph10%29.36 "Hg10 mi
3:00 PM115 °FSunny.15 mph8%29.39 "Hg10 mi
2:00 PM115 °FSunny.14 mph7%29.39 "Hg10 mi
1:00 PM115 °FSunny.13 mph8%29.39 "Hg10 mi
12:00 PM113 °FSunny.15 mph8%29.42 "Hg10 mi
11:00 AM111 °FSunny.17 mph9%29.42 "Hg10 mi
10:00 AM108 °FSunny.16 mph10%29.42 "Hg10 mi
9:00 AM104 °FSunny.16 mph10%29.42 "Hg10 mi
8:00 AM99 °FSunny.16 mph12%29.42 "Hg10 mi
7:00 AM93 °FSunny.12 mph14%29.42 "Hg10 mi
6:00 AM90 °FSunny.12 mph15%29.42 "Hg10 mi
5:00 AM90 °FClear.12 mph16%29.39 "Hg10 mi
4:00 AM90 °FClear.10 mph16%29.39 "Hg10 mi
3:00 AM91 °FClear.10 mph16%29.39 "Hg10 mi
2:00 AM91 °FClear.8 mph26%29.39 "Hg10 mi
1:00 AM90 °FClear.7 mph43%29.39 "Hg10 mi
12:00 AM90 °FClear.8 mph41%29.39 "Hg10 mi
11:00 PM
Jul 29
91 °FClear.8 mph44%29.42 "Hg10 mi
Weather by CustomWeather, © 2014

See weather overviewHow to use our weather pages